Regional Weather Roundup
Issued by NWS

Home | Current Version | Previous Version | Text Only | Print | Product List | Glossary On
Versions: 1 2 3 4 5 6 7 8 9 10 11 12 13 14 15 16 17 18 19 20 21 22 23 24 25 26 27 28 29 30 31 32 33 34 35 36 37 38 39 40 41 42 43 44 45 46 47 48 49 50
000
ASUS43 KLSX 181357
RWRMO

WEATHER SUMMARY FOR MISSOURI
NATIONAL WEATHER SERVICE SPRINGFIELD MO
800 AM CST WED JAN 18 2017

NOTE: "FAIR" INDICATES FEW OR NO CLOUDS BELOW 12,000 FEET WITH NO
       SIGNIFICANT WEATHER AND/OR OBSTRUCTIONS TO VISIBILITY.
       CURRENT SKY AND/OR WEATHER CONDITIONS ARE NOT AVAILABLE FOR
       CHILLICOTHE AND FARMINGTON.

MOZ001>031-035>038-043-044-053-054-181500-
...NORTHERN AND WESTERN MISSOURI...

CITY           SKY/WX    TMP DP  RH WIND       PRES   REMARKS
KANSAS CTY INT CLOUDY    27  25  92 S8        30.13S FOG     WCI  19
LEE`S SUMMIT   FOG       31  31 100 S9        30.16R VSB 1/4 WCI  23
ST JOSEPH      FOG       27  24  89 CALM      30.13F VSB 1/4
CHILLICOTHE      N/A     32  32 100 S7        30.16F WCI  26

$$
MOZ066>068-077>081-088>096-101>105-181500-
...SOUTHWEST MISSOURI...

CITY           SKY/WX    TMP DP  RH WIND       PRES   REMARKS
SPRINGFIELD    FOG       36  35  96 E6        30.19F VSB 1/4
JOPLIN         FOG       34  34 100 SE8       30.20S VSB 1/4 WCI  27
BRANSON        FOG       36  36 100 CALM      30.20F VSB 1/8

$$
MOZ032>034-039>042-045>050-055>058-069>072-181500-
...CENTRAL MISSOURI...

CITY           SKY/WX    TMP DP  RH WIND       PRES   REMARKS
COLUMBIA       NOT AVBL
JEFFERSON CITY CLOUDY    36  32  85 SE5       30.23S
ROLLA          CLOUDY    34  32  92 SW7       30.21R WCI  28
SEDALIA        CLOUDY    37  35  92 S9        30.20R FOG
WARRENSBURG    CLOUDY    36  34  93 S6        30.18S FOG

$$
MOZ051-052-059>065-181500-
...EAST CENTRAL MISSOURI...

CITY           SKY/WX    TMP DP  RH WIND       PRES   REMARKS
ST LOUIS INTL  CLOUDY    37  30  75 W3        30.23R

$$
MOZ072>076-082>087-097>100-106>115-181500-
...SOUTH CENTRAL AND SOUTHEAST MISSOURI...

CITY           SKY/WX    TMP DP  RH WIND       PRES   REMARKS
CAPE GIRARDEAU CLOUDY    40  35  83 N5        30.25R
POPLAR BLUFF   CLOUDY    41  38  89 N5        30.25R
WEST PLAINS    FOG       36  35  96 CALM      30.22S VSB 1/4

$$


USA.gov is the U.S. government's official web portal to all federal, state and local government web resources and services.